User: anonymous   Login
Location: Adrasan
(36.3319°N, 30.4314°E)
Time: 13:59:29
(UTC+00:00)
Language:

Cosmos 1452 Rocket - Orbit

View from above orbital plane
View from above orbital plane
View from above satellite
View from above satellite

Ground track
Ground track

The orbit data is extracted from the following two-line orbital elements,

1 13992U 83031B   24112.94676360  .00001045  00000-0  36287-3 0  9999
2 13992  74.0507  99.0590 0005313 194.4562 165.6440 14.36802302147551
Epoch (UTC): 21 April 2024 22:43:20
Eccentricity: 0.0005313
inclination: 74.0507°
perigee height: 765 km
apogee height: 773 km
right ascension of ascending node: 99.0590°
argument of perigee: 194.4562°
revolutions per day: 14.36802302
mean anomaly at epoch: 165.6440°
orbit number at epoch: 14755

The dashed part of the orbit path shows where the satellite is in the earth's shadow,  

DLR